Main page
METAR-TAF:

METAR-TAF

Airports :

Maringá Regional Airport

Maringá, Paraná, Brazil

latitude: 23-25S, longitude: 051-57W, elevation: 542 m

Current weather observation

The report was made 2 hours and 45 minutes ago, at 08:00 UTC
Wind 8 kt from the East/Northeast
Temperature 23°C
Humidity 65%
Pressure 1011 hPa
Visibility 10 km or more
no clouds below 1500 m and no cumulonimbus

METAR: SBMG 230800Z 06008KT CAVOK 23/16 Q1011

Time: 08:45 (10:45 UTC)


TAF: missing

Weather observations and forecasts of more than 4000 airports (METAR and TAF reports).

The available stations are represented by yellow and red dots on the map.

Hover mouse over dot to see the name of the station.

Then click to see weather observations and forecasts.

To change the map : click on the green buttons with a black cross to zoom in, on the green button with a dash to zoom out, or on the green arrows for adjacent maps.


METAR-TAF: